Martinsburg, WV

1:43 PM EST on February 20, 2018 (GMT -0500)
Eastern W Va Regional-Shepherd

Weather History for KMRB - March, 2014

Change the Weather History Date:

Friday, March 28, 2014

  Actual Average Record
Temperature  
Mean Temperature 54 °F 46 °F  
Max Temperature 68 °F 57 °F 86 °F (1989)
Min Temperature 39 °F 35 °F 20 °F (1966)
Degree Days  
Heating Degree Days 11 19  
Month to date heating degree days 784 660  
Since 1 July heating degree days 4877 4616  
Cooling Degree Days 0 0  
Month to date cooling degree days 0 0  
Year to date cooling degree days 0 0  
Growing Degree Days 4 (Base 50)    
Moisture  
Dew Point 40 °F    
Average Humidity 60    
Maximum Humidity 86    
Minimum Humidity 34    
Precipitation  
Precipitation 0.08 in 0.13 in 2.22 in (1984)
Month to date precipitation 0.87 3.15  
Year to date precipitation 4.62 7.93  
Sea Level Pressure  
Sea Level Pressure 30.02 in    
Wind  
Wind Speed 8 mph (South)    
Max Wind Speed 21 mph    
Max Gust Speed 31 mph    
Visibility 9 miles    
Events Rain    
T = Trace of Precipitation, MM = Missing Value Source: NWS Daily Summary

Daily Weather History Graph

Daily Weather History Graph

Search for Another Location

Airport or City:

Trip Planner

Search our weather history database for the weather conditions in past years. The results will help you decide how hot, cold, wet, or windy it might be!

Date:

Astronomy

Mar. 28, 2014 Rise Set
Actual Time 7:02 AM EDT 7:31 PM EDT
Civil Twilight 6:35 AM EDT 7:58 PM EDT
Nautical Twilight 6:04 AM EDT 8:30 PM EDT
Astronomical Twilight 5:31 AM EDT 9:03 PM EDT
Moon 5:31 AM EDT (3/28) 5:26 PM EDT (3/28)
Length of Visible Light 13h 23m
Length of Day
12h 29m
Waning Crescent, 6% of the Moon is Illuminated
Mar 28
Waning Crescent
Mar 30
New
Apr 7
First Quarter
Apr 15
Full
Apr 22
Last Quarter

Hourly Weather History & Observations

Time (EDT) Temp. Windchill Dew Point Humidity Pressure Visibility Wind Dir Wind Speed Gust Speed Precip Events Conditions
12:53 AM 45.0 °F 41.8 °F 19.9 °F 37% 30.10 in 10.0 mi South 5.8 mph - N/A   Mostly Cloudy
1:53 AM 46.0 °F 43.1 °F 19.9 °F 35% 30.07 in 10.0 mi South 5.8 mph - N/A   Clear
2:53 AM 41.0 °F - 21.9 °F 47% 30.06 in 10.0 mi Calm Calm - N/A   Clear
3:53 AM 44.1 °F 41.5 °F 24.1 °F 45% 30.03 in 10.0 mi SSE 4.6 mph - N/A   Overcast
4:53 AM 46.0 °F 43.1 °F 24.1 °F 42% 30.02 in 10.0 mi SE 5.8 mph - 0.00 in   Overcast
5:53 AM 46.0 °F 44.8 °F 27.0 °F 47% 30.02 in 10.0 mi SE 3.5 mph - 0.00 in   Overcast
6:53 AM 48.0 °F - 28.9 °F 48% 30.02 in 10.0 mi South 6.9 mph - 0.00 in Rain Light Rain
7:53 AM 46.0 °F 43.9 °F 39.9 °F 79% 30.03 in 5.0 mi South 4.6 mph - 0.04 in Rain Light Rain
8:53 AM 46.0 °F 44.8 °F 42.1 °F 86% 30.04 in 8.0 mi Variable 3.5 mph - 0.01 in Rain Light Rain
9:53 AM 46.9 °F - 41.0 °F 80% 30.03 in 10.0 mi SSE 6.9 mph - 0.00 in   Overcast
10:53 AM 48.0 °F - 44.1 °F 86% 30.02 in 6.0 mi South 10.4 mph - 0.02 in Rain Light Rain
11:53 AM 51.1 °F - 46.0 °F 83% 30.01 in 5.0 mi South 9.2 mph - 0.01 in Rain Light Rain
12:53 PM 55.9 °F - 48.9 °F 77% 29.98 in 10.0 mi South 11.5 mph - 0.00 in   Partly Cloudy
1:53 PM 62.1 °F - 48.0 °F 60% 29.95 in 10.0 mi SSW 15.0 mph 21.9 mph N/A   Partly Cloudy
2:53 PM 66.0 °F - 48.0 °F 52% 29.94 in 10.0 mi SSW 11.5 mph 27.6 mph N/A   Scattered Clouds
3:53 PM 66.9 °F - 48.0 °F 51% 29.94 in 10.0 mi SSW 13.8 mph 24.2 mph N/A   Mostly Cloudy
4:53 PM 66.0 °F - 48.0 °F 52% 29.94 in 10.0 mi South 16.1 mph 23.0 mph N/A   Mostly Cloudy
5:53 PM 66.0 °F - 48.9 °F 54% 29.96 in 10.0 mi SSW 10.4 mph - N/A   Scattered Clouds
6:53 PM 64.9 °F - 48.0 °F 54% 29.99 in 10.0 mi SSW 11.5 mph 24.2 mph N/A   Scattered Clouds
7:53 PM 63.0 °F - 48.0 °F 58% 30.01 in 10.0 mi South 8.1 mph - N/A   Scattered Clouds
8:53 PM 63.0 °F - 48.0 °F 58% 30.02 in 10.0 mi SSW 13.8 mph 20.7 mph N/A   Clear
9:53 PM 61.0 °F - 48.0 °F 62% 30.04 in 10.0 mi SSW 6.9 mph - N/A   Clear
10:53 PM 59.0 °F - 48.0 °F 67% 30.07 in 10.0 mi SW 4.6 mph - N/A   Scattered Clouds
11:53 PM 55.9 °F - 46.9 °F 72% 30.07 in 10.0 mi NNW 6.9 mph - N/A   Clear